[[{"header":{"parameterUnit":"m.s-1","parameterCategory":1,"la1":30.2991,"la2":30.254,"lo1":-89.0895,"lo2":-89.0444,"dy":0.0017,"dx":0.0017,"nx":28,"ny":28,"refTime":"2025-08-05T21:00:00:Z","depth":0,"parameterNumber":2,"parameterNumberName":"U-component_of_WINDS"},"data":[0,0,0,0,0,0,0,0,0,0,0,0,0,0,0,0,0,0,0,0,0,0,0,0,0,0,0,0,0,0,0,0,0,0,0,0,0,0,0,0,0,0,0,0,0,0,0,0,0,0,0,0,0,0,0,0,0,0,-0.105,-0.1049,0,-0.0983,-0.0983,-0.0982,-0.0944,-0.0943,-0.0943,-0.0943,-0.0873,-0.0872,-0.087,0,0,0,0,0,0,0,0,0,0,0,0,0,-0.1142,-0.114,-0.105,-0.1049,-0.1048,-0.0983,-0.0982,-0.0982,-0.0944,-0.0943,-0.0943,-0.0943,-0.0874,-0.0872,-0.087,0,0,0,0,0,0,0,0,0,0,0,0,0,-0.1091,-0.114,-0.105,-0.1022,-0.1018,-0.0984,-0.0982,-0.0981,-0.0944,-0.0943,-0.0943,-0.0943,-0.0875,-0.0872,-0.087,-0.0858,0,0,-0.0862,-0.0861,0,0,0,0,0,0,0,0,-0.1094,-0.1088,-0.1027,-0.1024,-0.102,-0.0972,-0.0989,-0.094,-0.0944,-0.0972,-0.0943,-0.0943,-0.0906,-0.0901,-0.0889,-0.0854,-0.0851,-0.0861,-0.086,-0.0859,-0.0858,0,0,0,0,0,0,0,-0.1098,-0.109,-0.1024,-0.1026,-0.1022,-0.1011,-0.1004,-0.098,-0.0941,-0.0969,-0.0967,-0.0959,-0.0904,-0.0891,-0.0887,-0.085,-0.0861,-0.0859,-0.0858,-0.0857,-0.08,-0.08,0,0,0,0,0,0,-0.1106,-0.1094,-0.1026,-0.1022,-0.1057,-0.101,-0.1001,-0.0987,-0.0941,-0.0934,-0.0959,-0.0958,-0.0896,-0.089,-0.0884,-0.0866,-0.0859,-0.0856,-0.0855,-0.08,-0.08,-0.08,0,0,0,0,0,0,-0.1108,-0.11,-0.1028,-0.1057,-0.1047,-0.1008,-0.0993,-0.0986,-0.0973,-0.0934,-0.0926,-0.0954,-0.0896,-0.0888,-0.0864,-0.0863,-0.0855,-0.0853,-0.08,-0.08,-0.08,-0.083,0,0,0,0,0,0,-0.1111,-0.1101,-0.1097,-0.1057,-0.1045,-0.101,-0.0993,-0.0985,-0.0969,-0.0966,-0.0926,-0.0919,-0.0895,-0.0868,-0.0861,-0.0859,-0.0851,-0.0799,-0.08,-0.08,-0.0828,-0.0831,-0.0832,0,0,0,0,0,-0.1114,-0.1109,-0.1097,-0.1089,-0.104,-0.1011,-0.1004,-0.0976,-0.0969,-0.0964,-0.0938,-0.0921,-0.0864,-0.0866,-0.0858,-0.0855,-0.0799,-0.08,-0.08,-0.0828,-0.083,-0.0832,0,0,0,0,0,0,-0.115,-0.1103,-0.109,-0.1071,-0.1045,-0.1004,-0.0997,-0.098,-0.0955,-0.0953,-0.0919,-0.091,-0.0889,-0.087,-0.0873,-0.0839,-0.083,-0.0828,-0.0853,-0.0856,-0.0858,-0.0863,-0.0849,0,0,0,0,0,-0.1156,-0.1137,-0.1096,-0.1084,-0.1071,-0.1036,-0.1023,-0.1003,-0.0975,-0.0963,-0.0936,-0.0908,-0.0883,-0.0868,-0.0844,-0.0825,-0.0815,-0.0819,-0.0821,-0.0822,-0.0822,-0.0808,-0.0809,-0.08,-0.08,-0.08,0,0,-0.1168,-0.1139,-0.113,-0.109,-0.1068,-0.1047,-0.1027,-0.1008,-0.0992,-0.096,-0.0936,-0.0914,-0.0881,-0.0859,-0.0848,-0.0842,-0.0821,-0.0823,-0.0824,-0.0822,-0.0808,-0.0809,-0.081,-0.08,-0.08,-0.08,0,0,-0.1179,-0.1156,-0.1142,-0.112,-0.1085,-0.1062,-0.1058,-0.1019,-0.1004,-0.0979,-0.0954,-0.0934,-0.0893,-0.087,-0.0853,-0.0852,-0.0834,-0.0844,-0.0855,-0.0842,-0.0842,-0.0843,-0.0841,-0.0841,-0.0844,-0.0844,-0.0844,0,-0.1198,-0.1167,-0.1137,-0.1118,-0.11,-0.107,-0.1055,-0.1034,-0.0994,-0.0982,-0.0976,-0.0922,-0.0898,-0.0869,-0.0868,-0.0856,-0.0849,-0.0849,-0.0845,-0.0845,-0.0845,-0.0843,-0.0842,-0.0845,-0.0845,-0.0845,-0.0845,0,-0.1191,-0.117,-0.1163,-0.1124,-0.1106,-0.1089,-0.1055,-0.1039,-0.1021,-0.0997,-0.097,-0.094,-0.0907,-0.0899,-0.0881,-0.0866,-0.0864,-0.0852,-0.0841,-0.0848,-0.0845,-0.0844,-0.0847,-0.0847,-0.0846,-0.0846,0,0,-0.1225,-0.1168,-0.1166,-0.1147,-0.1106,-0.1088,-0.1069,-0.1037,-0.1024,-0.0996,-0.0978,-0.0943,-0.093,-0.0911,-0.0889,-0.0878,-0.0877,-0.0867,-0.0866,-0.0869,-0.0857,-0.0866,-0.0866,-0.0865,-0.0864,-0.0864,-0.0859,0,-0.123,-0.1194,-0.1165,-0.114,-0.1119,-0.1088,-0.1071,-0.1043,-0.102,-0.0997,-0.0971,-0.0947,-0.0933,-0.0921,-0.0908,-0.088,-0.0874,-0.088,-0.0846,-0.0845,-0.0856,-0.0865,-0.0875,-0.0872,-0.0858,-0.0858,-0.0858,0,-0.1231,-0.1204,-0.1177,-0.1135,-0.1125,-0.111,-0.1078,-0.1057,-0.1024,-0.1007,-0.0984,-0.0962,-0.0937,-0.0928,-0.0894,-0.0898,-0.0882,-0.0866,-0.0865,-0.0861,-0.0852,-0.086,-0.0871,-0.087,-0.0856,-0.0857,-0.0857,0,-0.1257,-0.1214,-0.1191,-0.1176,-0.1128,-0.1117,-0.1097,-0.1063,-0.1045,-0.1016,-0.1003,-0.0972,-0.0955,-0.093,-0.0898,-0.0895,-0.0866,-0.0855,-0.0851,-0.0852,-0.0847,-0.0847,-0.0854,-0.0837,-0.0837,-0.0837,-0.0837,0,-0.1265,-0.125,-0.1202,-0.1188,-0.1169,-0.1134,-0.1116,-0.1092,-0.1062,-0.1041,-0.1013,-0.0994,-0.0954,-0.093,-0.0905,-0.0879,-0.0871,-0.0856,-0.085,-0.0859,-0.0861,-0.0848,-0.0847,-0.0837,-0.0837,-0.0837,-0.0837,0,-0.1292,-0.126,-0.1233,-0.1188,-0.1177,-0.1164,-0.1126,-0.111,-0.1084,-0.1059,-0.1051,-0.101,-0.098,-0.0946,-0.0905,-0.0887,-0.0863,-0.0854,-0.0874,-0.0871,-0.0868,-0.0868,-0.0867,-0.0864,-0.0849,-0.085,-0.085,0,-0.13,-0.1287,-0.124,-0.1225,-0.1205,-0.118,-0.1161,-0.1126,-0.1107,-0.1066,-0.1055,-0.1023,-0.0995,-0.0948,-0.0914,-0.0881,-0.0871,-0.0872,-0.0866,-0.0874,-0.0869,-0.087,-0.0868,-0.0874,-0.0875,-0.0875,-0.0875,0,-0.1316,-0.13,-0.1274,-0.1242,-0.122,-0.1193,-0.1165,-0.1153,-0.1112,-0.1092,-0.106,-0.1039,-0.0995,-0.0963,-0.0926,-0.0903,-0.0881,-0.0877,-0.0874,-0.0883,-0.0895,-0.0888,-0.0879,-0.0878,-0.0877,-0.0877,-0.0877,-0.0877,-0.1333,-0.1319,-0.1283,-0.1255,-0.1229,-0.1203,-0.1185,-0.1157,-0.113,-0.1093,-0.1073,-0.1042,-0.1005,-0.0953,-0.093,-0.0904,-0.0897,-0.0893,-0.0892,-0.0892,-0.0893,-0.09,-0.0897,-0.0897,-0.0897,-0.0897,-0.0897,0,-0.1347,-0.1322,-0.1296,-0.1257,-0.1233,-0.1215,-0.1182,-0.1164,-0.1136,-0.1105,-0.1078,-0.104,-0.1008,-0.097,-0.0935,-0.0921,-0.091,-0.0913,-0.0913,-0.0908,-0.0902,-0.0908,-0.0922,-0.0922,-0.0922,-0.0922,-0.0922,-0.0922,-0.1351,-0.1326,-0.1306,-0.1267,-0.1241,-0.1211,-0.1193,-0.1168,-0.1142,-0.1102,-0.1074,-0.105,-0.1015,-0.0977,-0.0945,-0.0935,-0.0923,-0.0928,-0.0915,-0.091,-0.0908,-0.0906,-0.0911,-0.0926,-0.0926,-0.0922,-0.0922,-0.0922]},{"header":{"parameterUnit":"m.s-1","parameterCategory":1,"la1":30.2991,"la2":30.254,"lo1":-89.0895,"lo2":-89.0444,"dy":0.0017,"dx":0.0017,"nx":28,"ny":28,"refTime":"2025-08-05T21:00:00:Z","depth":0,"parameterNumber":3,"parameterNumberName":"V-component_of_WINDS"},"data":[0,0,0,0,0,0,0,0,0,0,0,0,0,0,0,0,0,0,0,0,0,0,0,0,0,0,0,0,0,0,0,0,0,0,0,0,0,0,0,0,0,0,0,0,0,0,0,0,0,0,0,0,0,0,0,0,0,0,-1.1895,-1.1895,0,-1.1909,-1.1909,-1.1909,-1.1928,-1.1929,-1.1929,-1.1929,-1.1942,-1.1942,-1.1942,0,0,0,0,0,0,0,0,0,0,0,0,0,-1.1882,-1.1883,-1.1895,-1.1895,-1.1895,-1.1909,-1.1909,-1.1909,-1.1928,-1.1929,-1.1929,-1.1929,-1.1942,-1.1942,-1.1942,0,0,0,0,0,0,0,0,0,0,0,0,0,-1.1891,-1.1883,-1.1895,-1.1906,-1.1908,-1.1908,-1.1909,-1.1909,-1.1928,-1.1929,-1.1929,-1.193,-1.1942,-1.1942,-1.1942,-1.1932,0,0,-1.1942,-1.1942,0,0,0,0,0,0,0,0,-1.1891,-1.1892,-1.1904,-1.1906,-1.1907,-1.1917,-1.1909,-1.1917,-1.1928,-1.192,-1.1929,-1.193,-1.1933,-1.1934,-1.1935,-1.1932,-1.1933,-1.1942,-1.1942,-1.1942,-1.1942,0,0,0,0,0,0,0,-1.189,-1.1891,-1.19,-1.1905,-1.1906,-1.191,-1.1912,-1.191,-1.1924,-1.1921,-1.1922,-1.1924,-1.1934,-1.1935,-1.1936,-1.1933,-1.1942,-1.1942,-1.1942,-1.1942,-1.1921,-1.192,0,0,0,0,0,0,-1.1888,-1.189,-1.19,-1.1901,-1.19,-1.191,-1.1912,-1.1913,-1.1924,-1.1926,-1.1923,-1.1925,-1.1935,-1.1936,-1.1936,-1.1924,-1.1942,-1.1942,-1.1942,-1.1921,-1.1921,-1.192,0,0,0,0,0,0,-1.1888,-1.1889,-1.1899,-1.1896,-1.1898,-1.191,-1.1911,-1.1913,-1.1915,-1.1926,-1.1928,-1.1923,-1.1935,-1.1936,-1.1932,-1.1924,-1.1942,-1.1942,-1.1922,-1.1921,-1.192,-1.1899,0,0,0,0,0,0,-1.1887,-1.1888,-1.1885,-1.1896,-1.1898,-1.1896,-1.1911,-1.1913,-1.1915,-1.1917,-1.1925,-1.1927,-1.1936,-1.1932,-1.1932,-1.1925,-1.1942,-1.1923,-1.1921,-1.192,-1.1901,-1.1898,-1.1895,0,0,0,0,0,-1.1887,-1.1879,-1.1885,-1.1886,-1.1894,-1.1895,-1.1896,-1.1907,-1.1914,-1.1911,-1.1917,-1.1927,-1.1926,-1.1932,-1.1932,-1.1924,-1.1923,-1.1922,-1.1921,-1.1902,-1.1899,-1.1896,0,0,0,0,0,0,-1.1867,-1.1881,-1.1888,-1.1883,-1.1888,-1.1899,-1.1895,-1.1903,-1.1905,-1.1907,-1.1919,-1.1921,-1.1915,-1.192,-1.1926,-1.1914,-1.1926,-1.1924,-1.1911,-1.1908,-1.1906,-1.1904,-1.1942,0,0,0,0,0,-1.1862,-1.1863,-1.1874,-1.1869,-1.1871,-1.1883,-1.1883,-1.1891,-1.1896,-1.1898,-1.1905,-1.1909,-1.1909,-1.1909,-1.191,-1.1902,-1.1903,-1.1897,-1.1894,-1.1892,-1.189,-1.1884,-1.1881,-1.1916,-1.1916,-1.1916,0,0,-1.1852,-1.186,-1.1859,-1.1866,-1.187,-1.1869,-1.1884,-1.1883,-1.1882,-1.1898,-1.1894,-1.1899,-1.1905,-1.1898,-1.1896,-1.1901,-1.1881,-1.189,-1.1888,-1.1888,-1.1882,-1.1879,-1.1876,-1.1915,-1.1915,-1.1915,0,0,-1.1833,-1.184,-1.1835,-1.184,-1.1847,-1.1854,-1.1853,-1.1862,-1.1866,-1.1863,-1.1874,-1.1873,-1.1874,-1.1877,-1.1878,-1.1859,-1.1867,-1.1859,-1.1844,-1.1838,-1.1836,-1.1833,-1.1824,-1.1821,-1.1858,-1.1858,-1.1858,0,-1.182,-1.182,-1.1832,-1.183,-1.1831,-1.1846,-1.1841,-1.1844,-1.1851,-1.1851,-1.1858,-1.1858,-1.1863,-1.1857,-1.1852,-1.1853,-1.1851,-1.1858,-1.1835,-1.1833,-1.1831,-1.1823,-1.1819,-1.1856,-1.1857,-1.1857,-1.1857,0,-1.1802,-1.1801,-1.1797,-1.1803,-1.1804,-1.1801,-1.1811,-1.1811,-1.1818,-1.1824,-1.182,-1.1826,-1.1828,-1.1827,-1.1835,-1.1821,-1.1824,-1.1833,-1.1845,-1.1826,-1.1818,-1.1816,-1.1855,-1.1855,-1.1855,-1.1856,0,0,-1.1771,-1.1783,-1.1781,-1.1783,-1.1791,-1.1791,-1.1787,-1.1789,-1.1788,-1.1792,-1.1788,-1.1788,-1.1796,-1.1797,-1.1805,-1.18,-1.1782,-1.1809,-1.1809,-1.1802,-1.1765,-1.1757,-1.1754,-1.1788,-1.1787,-1.1787,-1.1764,0,-1.1752,-1.1747,-1.1757,-1.1749,-1.1748,-1.1762,-1.1758,-1.1762,-1.1768,-1.1767,-1.1773,-1.1772,-1.1783,-1.1784,-1.1779,-1.1785,-1.1774,-1.1787,-1.1783,-1.1782,-1.1779,-1.175,-1.1742,-1.172,-1.1761,-1.1761,-1.1761,0,-1.173,-1.1732,-1.1724,-1.1731,-1.1731,-1.1728,-1.173,-1.1729,-1.1734,-1.1738,-1.1739,-1.1748,-1.1744,-1.1756,-1.1749,-1.1757,-1.1756,-1.1758,-1.1758,-1.1756,-1.1769,-1.1746,-1.1714,-1.1709,-1.1756,-1.1757,-1.1757,0,-1.1706,-1.1707,-1.1702,-1.1704,-1.1713,-1.171,-1.1713,-1.1718,-1.1718,-1.1719,-1.1719,-1.172,-1.172,-1.172,-1.1728,-1.1737,-1.1719,-1.1733,-1.1721,-1.1721,-1.1716,-1.1716,-1.1681,-1.1718,-1.1718,-1.1718,-1.1718,0,-1.1683,-1.1677,-1.1691,-1.1688,-1.1681,-1.1692,-1.1685,-1.169,-1.1694,-1.169,-1.1703,-1.1699,-1.1711,-1.1709,-1.1715,-1.1707,-1.1708,-1.171,-1.1711,-1.1708,-1.1707,-1.1706,-1.1707,-1.1717,-1.1718,-1.1718,-1.1718,0,-1.1654,-1.1664,-1.1659,-1.1667,-1.1669,-1.1664,-1.167,-1.1667,-1.1673,-1.1669,-1.1668,-1.1678,-1.1675,-1.1684,-1.1683,-1.1687,-1.1675,-1.168,-1.1673,-1.1674,-1.1662,-1.1662,-1.1623,-1.1618,-1.166,-1.166,-1.166,0,-1.1638,-1.1634,-1.1642,-1.1641,-1.1644,-1.1642,-1.1642,-1.1653,-1.1652,-1.1656,-1.1651,-1.165,-1.1649,-1.1644,-1.165,-1.1649,-1.1653,-1.1639,-1.1653,-1.1648,-1.165,-1.1649,-1.1648,-1.1636,-1.1635,-1.1635,-1.1635,0,-1.1608,-1.1613,-1.1613,-1.1614,-1.1613,-1.1614,-1.1616,-1.1614,-1.1626,-1.1624,-1.1622,-1.1621,-1.162,-1.1618,-1.1618,-1.162,-1.1628,-1.1631,-1.1628,-1.1623,-1.1618,-1.1619,-1.1664,-1.1631,-1.1632,-1.1632,-1.1632,-1.1632,-1.1584,-1.158,-1.1585,-1.1584,-1.1586,-1.1587,-1.1584,-1.159,-1.1588,-1.1588,-1.1594,-1.159,-1.1593,-1.1594,-1.1595,-1.1591,-1.1597,-1.1593,-1.1592,-1.159,-1.1587,-1.1621,-1.1591,-1.1592,-1.1592,-1.1592,-1.1592,0,-1.1553,-1.1557,-1.1556,-1.1558,-1.1556,-1.1565,-1.1568,-1.1565,-1.1562,-1.1564,-1.1563,-1.1559,-1.1556,-1.1562,-1.156,-1.1556,-1.1559,-1.1554,-1.1554,-1.1554,-1.1583,-1.1585,-1.1551,-1.1551,-1.1551,-1.1551,-1.1551,-1.1551,-1.1537,-1.153,-1.1535,-1.1529,-1.1532,-1.1528,-1.1528,-1.1529,-1.153,-1.1526,-1.1524,-1.1528,-1.1531,-1.1529,-1.1526,-1.1528,-1.1525,-1.1519,-1.1522,-1.1548,-1.1552,-1.1556,-1.1558,-1.1519,-1.1519,-1.1493,-1.1492,-1.1492]}]]